This is the latest recevied weather packets stored in our database for station/object N3AVN. If no packets are shown the sender has not sent any weather packets the latest 10 day(s).
| Time | Temp. | Humidity | Pressure | Rain* | Wind** | Luminosity | Snow |
|---|---|---|---|---|---|---|---|
| 1777732789 | 11.67° C | 83% | 1010 hPa | 0 mm | - | 39 W/m² | - |
| 1777732486 | 12.78° C | 85% | 1010.4 hPa | 0 mm | - | 62 W/m² | - |
| 1777732184 | 11.67° C | 86% | 1010.2 hPa | 0 mm | - | 97 W/m² | - |
| 1777731881 | 11.67° C | 86% | 1010.3 hPa | 0 mm | - | 138 W/m² | - |
| 1777731577 | 11.67° C | 85% | 1010.3 hPa | 0 mm | - | 199 W/m² | - |
| 1777731275 | 11.67° C | 86% | 1010.5 hPa | 0 mm | - | 131 W/m² | - |
| 1777730972 | 11.67° C | 85% | 1010.4 hPa | 0 mm | - | 82 W/m² | - |
| 1777730671 | 11.11° C | 83% | 1010.4 hPa | 0 mm | - | 97 W/m² | - |
| 1777730367 | 11.67° C | 84% | 1010.2 hPa | 0 mm | - | 148 W/m² | - |
| 1777730063 | 12.22° C | 83% | 1010.3 hPa | 0 mm | - | 257 W/m² | - |
| 1777729759 | 11.67° C | 86% | 1010.3 hPa | 0 mm | - | 440 W/m² | - |
| 1777729457 | 11.11° C | 86% | 1010.5 hPa | 0 mm | - | 150 W/m² | - |
| 1777729153 | 11.67° C | 87% | 1010.5 hPa | 0 mm | - | 219 W/m² | - |
| 1777728850 | 11.11° C | 88% | 1010.3 hPa | 0 mm | - | 122 W/m² | - |
| 1777728547 | 11.11° C | 86% | 1010.5 hPa | 0 mm | - | 130 W/m² | - |
| 1777728244 | 11.67° C | 85% | 1010.5 hPa | 0 mm | - | 179 W/m² | - |
| 1777727941 | 12.78° C | 82% | 1010.5 hPa | 0 mm | - | 268 W/m² | - |
| 1777727638 | 11.67° C | 88% | 1010.4 hPa | 0 mm | - | 481 W/m² | - |
| 1777727335 | 11.11° C | 92% | 1010.4 hPa | 0 mm | - | 143 W/m² | - |
| 1777727032 | 10.56° C | 94% | 1010.3 hPa | 0 mm | - | 445 W/m² | - |
| 1777726729 | 10° C | 97% | 1010.6 hPa | 0 mm | - | 489 W/m² | - |
| 1777726427 | 9.44° C | 97% | 1010.6 hPa | 0 mm | - | 186 W/m² | - |
| 1777726123 | 8.89° C | 98% | 1010.4 hPa | 0 mm | - | 149 W/m² | - |
| 1777725820 | 9.44° C | 98% | 1010.4 hPa | 0 mm | - | 97 W/m² | - |
| 1777725518 | 8.89° C | 98% | 1010.8 hPa | 0 mm | - | 89 W/m² | - |
* Rain latest hour (hover to see other rain measurements)
** Current wind speed in m/s (hover to see current wind gust speed)